Location: Eldred Sherwood Park Lake Dam
(42.9416°N, 93.5655°W)
Time: 08:46:25
(UTC+00:00)

Vanguard 2 Rocket - Pass Details

Date: 14 November 2024
Orbit: 554 x 3296 km, 32.9° (Epoch: 06 December)

Event Time Altitude Azimuth Distance (km) Brightness Sun altitude
Rises 10:16:55 0° 181° (S) 4,991 10.6 -30.9°
Reaches altitude 10° 10:21:51 10° 161° (SSE) 4,525 10.6 -30.0°
Maximum altitude 10:28:47 16° 129° (SE) 4,661 11.0 -28.7°
Drops below altitude 10° 10:37:18 10° 98° (E) 5,762 11.9 -27.2°
Sets 10:45:06 0° 82° (E) 7,133 12.8 -25.8°
